Weather History for Lewisburg, WV

Change the Weather History Date:

Wednesday, March 19, 2014

  Actual Average Record
Temperature  
Mean Temperature 48 °F 40 °F  
Max Temperature 62 °F 53 °F 75 °F (1982)
Min Temperature 33 °F 27 °F 12 °F (1993)
Degree Days  
Heating Degree Days 17    
Month to date heating degree days 552  
Since 1 July heating degree days 3841  
Cooling Degree Days 0    
Month to date cooling degree days 0  
Year to date cooling degree days 0  
Moisture  
Dew Point 35 °F    
Average Humidity 70    
Maximum Humidity 100    
Minimum Humidity 40    
Precipitation  
Precipitation T in 0.12 in 0.48 in (2012)
Month to date precipitation 1.37 2.06  
Year to date precipitation 4.20 8.09  
Snow  
Snow 0.00 in - - ()
Month to date snowfall 7.0  
Since 1 July snowfall 37.9  
Snow Depth 0.00 in    
Sea Level Pressure  
Sea Level Pressure 29.97 in    
Wind  
Wind Speed 10 mph (NW)    
Max Wind Speed 18 mph    
Max Gust Speed 27 mph    
Visibility 10 miles    
Events      
T = Trace of Precipitation, MM = Missing Value Source: NWS Daily Summary

Daily Weather History Graph

Daily Weather History Graph

Search for Another Location

Airport:

Trip Planner

Search our weather history database for the weather conditions in past years. The results will help you decide how hot, cold, wet, or windy it might be!

Date:

Astronomy

Mar. 19, 2014 Rise Set
Actual Time 7:26 AM EDT 7:32 PM EDT
Civil Twilight 7:00 AM EDT 7:58 PM EDT
Nautical Twilight 6:29 AM EDT 8:29 PM EDT
Astronomical Twilight 5:58 AM EDT 9:00 PM EDT
Moon 10:45 PM EDT (3/19) 8:54 AM EDT (3/19)
Length of Visible Light 12h 58m
Length of Day
12h 05m
Waning Gibbous, 91% of the Moon is Illuminated
Mar 19
Waning Gibbous
Mar 23
Last Quarter
Mar 30
New
Apr 7
First Quarter
Apr 15
Full

Hourly Weather History & Observations

Time (EDT) Temp. Windchill Dew Point Humidity Pressure Visibility Wind Dir Wind Speed Gust Speed Precip Events Conditions
12:15 AM 34.2 °F - 30.4 °F 86% 30.09 in 10.0 mi Calm Calm - N/A   Overcast
12:35 AM 34.0 °F 31.0 °F 30.6 °F 87% 30.10 in 10.0 mi East 3.5 mph - N/A   Overcast
12:55 AM 34.2 °F 31.2 °F 30.7 °F 87% 30.10 in 10.0 mi East 3.5 mph - N/A   Overcast
1:15 AM 33.8 °F 29.6 °F 30.9 °F 89% 30.10 in 10.0 mi East 4.6 mph - N/A   Overcast
1:35 AM 33.8 °F - 31.1 °F 90% 30.11 in 10.0 mi Calm Calm - N/A   Overcast
1:55 AM 33.8 °F 30.8 °F 31.1 °F 90% 30.11 in 10.0 mi ESE 3.5 mph - N/A   Overcast
2:15 AM 33.8 °F - 31.1 °F 90% 30.11 in 10.0 mi Calm Calm - N/A   Overcast
2:35 AM 33.4 °F 30.4 °F 31.6 °F 93% 30.11 in 7.0 mi ENE 3.5 mph - N/A   Overcast
2:55 AM 33.8 °F 28.6 °F 31.8 °F 92% 30.12 in 10.0 mi NNE 5.8 mph - N/A   Overcast
3:15 AM 33.3 °F 30.2 °F 31.8 °F 94% 30.11 in 10.0 mi NE 3.5 mph - N/A   Overcast
3:35 AM 33.1 °F 28.7 °F 31.8 °F 95% 30.10 in 7.0 mi NNE 4.6 mph - N/A   Overcast
3:55 AM 32.9 °F 27.5 °F 32.0 °F 96% 30.08 in 7.0 mi ENE 5.8 mph - N/A   Overcast
4:15 AM 33.1 °F 26.9 °F 32.0 °F 96% 30.08 in 10.0 mi North 6.9 mph - N/A   Overcast
4:35 AM 33.4 °F 27.3 °F 32.0 °F 94% 30.08 in 10.0 mi NNE 6.9 mph - N/A   Overcast
4:55 AM 33.3 °F 27.1 °F 32.0 °F 95% 30.07 in 10.0 mi NNE 6.9 mph - N/A   Overcast
5:15 AM 33.6 °F 27.5 °F 32.0 °F 94% 30.07 in 10.0 mi NNE 6.9 mph - N/A   Overcast
5:35 AM 33.8 °F 27.7 °F 32.0 °F 93% 30.07 in 10.0 mi NNE 6.9 mph - N/A   Overcast
5:55 AM 33.8 °F 27.0 °F 32.0 °F 93% 30.08 in 10.0 mi NNE 8.1 mph - N/A   Overcast
6:15 AM 33.8 °F 27.7 °F 32.0 °F 93% 30.07 in 10.0 mi NNE 6.9 mph - N/A   Overcast
6:35 AM 33.8 °F 28.6 °F 32.0 °F 93% 30.07 in 10.0 mi NNE 5.8 mph - N/A   Overcast
6:55 AM 34.2 °F 26.8 °F 32.2 °F 92% 30.07 in 10.0 mi NNE 9.2 mph - N/A   Overcast
7:15 AM 34.3 °F 28.4 °F 32.4 °F 92% 30.07 in 10.0 mi NNE 6.9 mph - N/A   Overcast
7:35 AM 34.5 °F 27.9 °F 32.5 °F 92% 30.07 in 10.0 mi North 8.1 mph - N/A   Overcast
7:55 AM 34.7 °F 27.5 °F 32.7 °F 92% 30.07 in 10.0 mi NNE 9.2 mph - N/A   Overcast
8:15 AM 34.9 °F 32.0 °F 33.1 °F 93% 30.06 in 7.0 mi NNE 3.5 mph - N/A   Overcast
8:35 AM 35.1 °F 29.3 °F 33.3 °F 93% 30.05 in 7.0 mi NNE 6.9 mph - N/A   Overcast
8:55 AM 35.2 °F 30.3 °F 33.4 °F 93% 30.05 in 7.0 mi North 5.8 mph - N/A   Overcast
9:15 AM 35.8 °F 30.9 °F 33.8 °F 92% 30.05 in 7.0 mi North 5.8 mph - N/A   Overcast
9:35 AM 36.5 °F 30.3 °F 34.3 °F 92% 30.05 in 10.0 mi NNE 8.1 mph - N/A   Overcast
9:55 AM 37.4 °F 32.1 °F 34.9 °F 91% 30.05 in 10.0 mi NNE 6.9 mph - N/A   Overcast
10:15 AM 38.3 °F 33.2 °F 35.4 °F 89% 30.05 in 10.0 mi NNE 6.9 mph - N/A   Overcast
10:35 AM 39.4 °F 35.2 °F 36.0 °F 88% 30.04 in 10.0 mi North 5.8 mph - N/A   Overcast
10:50 AM 39.6 °F 35.4 °F 35.8 °F 86% 30.04 in 10.0 mi North 5.8 mph - N/A   Overcast
11:15 AM 41.4 °F 38.4 °F 37.0 °F 85% 30.03 in 10.0 mi North 4.6 mph - N/A   Overcast
11:35 AM 43.3 °F 40.7 °F 38.1 °F 82% 30.01 in 10.0 mi North 4.6 mph - N/A   Overcast
11:55 AM 45.1 °F - 38.3 °F 77% 30.00 in 10.0 mi Calm Calm - N/A   Overcast
12:15 PM 47.5 °F - 39.6 °F 74% 29.98 in 10.0 mi North 5.8 mph - N/A   Overcast
12:35 PM 48.6 °F - 39.7 °F 72% 29.97 in 10.0 mi NNE 5.8 mph - N/A   Overcast
12:55 PM 52.7 °F - 41.4 °F 65% 29.96 in 10.0 mi South 10.4 mph - N/A   Overcast
1:15 PM 55.9 °F - 41.5 °F 58% 29.95 in 10.0 mi South 13.8 mph 19.6 mph N/A   Overcast
1:35 PM 55.4 °F - 41.0 °F 58% 29.93 in 10.0 mi South 11.5 mph 18.4 mph N/A   Mostly Cloudy
1:55 PM 55.4 °F - 41.2 °F 59% 29.93 in 10.0 mi SSW 16.1 mph 20.7 mph N/A   Mostly Cloudy
2:15 PM 57.6 °F - 41.7 °F 56% 29.92 in 10.0 mi South 11.5 mph 18.4 mph N/A   Mostly Cloudy
2:35 PM 57.6 °F - 40.8 °F 54% 29.90 in 10.0 mi SSW 18.4 mph 21.9 mph N/A   Mostly Cloudy
2:55 PM 58.3 °F - 40.6 °F 52% 29.89 in 10.0 mi SSW 18.4 mph 25.3 mph N/A   Scattered Clouds
3:15 PM 58.5 °F - 40.8 °F 52% 29.88 in 10.0 mi SSW 13.8 mph 23.0 mph N/A   Scattered Clouds
3:35 PM 59.5 °F - 39.9 °F 48% 29.87 in 10.0 mi SSW 17.3 mph 23.0 mph N/A   Scattered Clouds
3:55 PM 60.3 °F - 39.2 °F 46% 29.86 in 10.0 mi SSW 12.7 mph 23.0 mph N/A   Clear
4:15 PM 61.0 °F - 39.4 °F 45% 29.84 in 10.0 mi SSW 15.0 mph 24.2 mph N/A   Clear
4:35 PM 60.8 °F - 39.4 °F 45% 29.83 in 10.0 mi SW 15.0 mph 19.6 mph N/A   Clear
4:55 PM 60.8 °F - 39.6 °F 46% 29.82 in 10.0 mi SSW 13.8 mph 20.7 mph N/A   Clear
5:15 PM 60.8 °F - 40.1 °F 46% 29.82 in 10.0 mi SW 12.7 mph 18.4 mph N/A   Clear
5:35 PM 61.0 °F - 40.3 °F 46% 29.81 in 10.0 mi South 8.1 mph - N/A   Clear
5:55 PM 61.5 °F - 40.5 °F 46% 29.82 in 10.0 mi WSW 11.5 mph - N/A   Clear
6:15 PM 61.7 °F - 40.5 °F 46% 29.82 in 10.0 mi SW 12.7 mph - N/A   Clear
6:35 PM 59.9 °F - 40.6 °F 49% 29.82 in 10.0 mi SW 8.1 mph - N/A   Clear
6:55 PM 60.1 °F - 37.6 °F 43% 29.82 in 10.0 mi WSW 15.0 mph 21.9 mph N/A   Scattered Clouds
7:15 PM 59.4 °F - 34.3 °F 39% 29.83 in 10.0 mi WSW 10.4 mph 21.9 mph N/A   Scattered Clouds
7:35 PM 58.5 °F - 33.1 °F 38% 29.83 in 10.0 mi West 10.4 mph - N/A   Scattered Clouds
7:55 PM 57.7 °F - 33.3 °F 40% 29.84 in 10.0 mi WSW 11.5 mph 17.3 mph N/A   Clear
8:15 PM 57.2 °F - 34.3 °F 42% 29.84 in 10.0 mi West 10.4 mph 16.1 mph N/A   Scattered Clouds
8:35 PM 56.3 °F - 34.7 °F 44% 29.86 in 10.0 mi West 9.2 mph - N/A   Clear
8:55 PM 55.9 °F - 32.4 °F 41% 29.87 in 10.0 mi WSW 16.1 mph 26.5 mph N/A   Scattered Clouds
9:15 PM 55.4 °F - 33.4 °F 43% 29.87 in 10.0 mi West 9.2 mph 23.0 mph N/A   Mostly Cloudy
9:35 PM 54.5 °F - 34.0 °F 46% 29.88 in 10.0 mi WSW 9.2 mph 20.7 mph N/A   Mostly Cloudy
9:55 PM 53.6 °F - 34.0 °F 47% 29.88 in 10.0 mi WSW 9.2 mph 16.1 mph N/A   Scattered Clouds
10:15 PM 53.1 °F - 33.1 °F 47% 29.88 in 10.0 mi WSW 11.5 mph 16.1 mph N/A   Scattered Clouds
10:35 PM 52.7 °F - 32.5 °F 46% 29.89 in 10.0 mi WSW 10.4 mph 24.2 mph N/A   Scattered Clouds
10:55 PM 52.2 °F - 32.9 °F 48% 29.88 in 10.0 mi WSW 9.2 mph - N/A   Mostly Cloudy
11:15 PM 51.8 °F - 32.5 °F 48% 29.89 in 10.0 mi WSW 8.1 mph - N/A   Scattered Clouds
11:35 PM 51.1 °F - 32.9 °F 50% 29.89 in 10.0 mi WSW 8.1 mph - N/A   Mostly Cloudy
11:55 PM 51.4 °F - 33.4 °F 50% 29.88 in 10.0 mi WSW 9.2 mph - N/A   Overcast